Regional Weather Roundup
Issued by NWS

Home | Current Version | Previous Version | Text Only | Print | Product List | Glossary On
Versions: 1 2 3 4 5 6 7 8 9 10 11 12 13 14 15 16 17 18 19 20 21 22 23 24 25 26 27 28 29 30 31 32 33 34 35 36 37 38 39 40 41 42 43 44 45 46 47 48 49 50
000
ASUS43 KDMX 262003
RWRIA

WEATHER ROUNDUP FOR IOWA
NATIONAL WEATHER SERVICE DES MOINES IA
300 PM CDT TUE JUL 26 2016

NOTE: "FAIR" INDICATES FEW OR NO CLOUDS BELOW 12,000 FEET WITH NO
SIGNIFICANT WEATHER AND/OR OBSTRUCTIONS TO VISIBILITY.

* - THESE STATIONS ARE NOT NWS STATIONS...THUS NOT UNDER NWS
QUALITY CONTROL.  THEY ALSO DO NOT REPORT WEATHER SUCH
AS PRECIPITATION OR FOG.

IAZ001>003-012>014-020>022-031>034-043>046-262100-
   NORTHWEST IOWA

CITY           SKY/WX    TMP DP  RH WIND       PRES   REMARKS
CARROLL *      SUNNY     84  68  58 SE7       30.05F HX  87
CHEROKEE *     SUNNY     85  65  50 SW8       30.04F HX  87
DENISON *      SUNNY     84  66  54 VRB5      30.03F HX  86
LE MARS *      SUNNY     86  68  54 S8G18     30.04S HX  89
SHELDON *      SUNNY     82  68  61 S12       30.03F HX  85
SIOUX CITY     SUNNY     88  67  49 S12       30.02F HX  91
SPENCER        SUNNY     85  66  53 SW12      30.05F HX  87
STORM LAKE *     N/A     82  68  61 S8        30.06F HX  85
$$

IAZ055>058-069>071-079>083-090>094-262100-
   SOUTHWEST IOWA

CITY           SKY/WX    TMP DP  RH WIND       PRES   REMARKS
ATLANTIC *     MOSUNNY   84  66  54 SE8       30.05S HX  86
CLARINDA *       N/A     86  68  54 MISG      30.06F HX  89
COUNCIL BLFS * SUNNY     84  66  54 SE7       30.05F HX  86
CRESTON *      SUNNY     82  66  57 VRB5      30.07F HX  85
HARLAN  *      MOSUNNY   84  66  54 VRB5G12   30.08F HX  86
LAMONI         SUNNY     84  66  54 VRB5      30.05F HX  86
RED OAK *      SUNNY     84  66  54 SE9       30.04F HX  86
SHENANDOAH *   SUNNY     86  66  51 VRB6      30.04F HX  88
$$

IAZ047>049-059>061-072>074-084-262100-
   CENTRAL IOWA

CITY           SKY/WX    TMP DP  RH WIND       PRES   REMARKS
AMES           PTSUNNY   85  69  58 E3        30.05F HX  89
ANKENY *         N/A    N/A N/A N/A MISG        N/A
BOONE *        MOSUNNY   84  68  58 VRB6      30.05F HX  87
CHARITON *       N/A    N/A N/A N/A MISG        N/A
DES MOINES     MOSUNNY   86  64  47 SE9       30.04F HX  87
GRINNELL*      PTSUNNY   84  64  49 E5        30.06F HX  85
KNOXVILLE *    MOSUNNY   82  64  54 E5        30.04F HX  84
MARSHALLTOWN   MOSUNNY   84  65  52 SE8       30.05F HX  86
NEWTON *       MOSUNNY   82  66  57 S3        30.05F HX  85
PELLA *        MOSUNNY   85  62  46 SE3       30.06S HX  85
PERRY *          N/A     84  67  56 E7        30.06S HX  86
$$

IAZ004>006-015-016-023>025-035-036-262100-
   NORTH CENTRAL IOWA

CITY           SKY/WX    TMP DP  RH WIND       PRES   REMARKS
ALGONA *       MOSUNNY   84  68  58 S8        30.06F HX  87
ESTHERVILLE    SUNNY     83  68  60 S8        30.05F HX  86
FORT DODGE *   PTSUNNY   84  68  58 S8        30.06F HX  87
MASON CITY     MOSUNNY   86  67  52 S7        30.07F HX  89
FOREST CITY *    N/A     82  64  54 S3        30.06F HX  84
IOWA FALLS *   PTSUNNY   85  66  53 E5        30.07F HX  87
$$

IAZ007>011-017>019-026>030-037>042-050>054-066-262100-
   NORTHEAST IOWA

CITY           SKY/WX    TMP DP  RH WIND       PRES   REMARKS
CEDAR RAPIDS   MOSUNNY   84  68  58 VRB5      30.04F HX  87
CHARLES CITY * MOSUNNY   84  66  54 CALM      30.07F HX  86
CLINTON *      MOSUNNY   84  67  56 N3        30.04F HX  86
DECORAH *      MOSUNNY   82  66  57 CALM      30.06S HX  85
DUBUQUE        PTSUNNY   83  64  52 CALM      30.07F HX  84
MONTICELLO *   SUNNY     84  66  54 CALM      30.04F HX  86
OELWEIN *      MOSUNNY   82  66  57 E3        30.06F HX  85
WATERLOO       SUNNY     86  66  51 NE6       30.04F HX  88
$$

IAZ064-065-067-068-078-262100-
   EAST CENTRAL IOWA

CITY           SKY/WX    TMP DP  RH WIND       PRES   REMARKS
DAVENPORT      SUNNY     85  64  49 NE7       30.04F HX  86
IOWA CITY      SUNNY     85  65  51 MISG      30.05F HX  86
MT. PLEASANT * SUNNY     87  67  51 NE6       30.03F HX  89
MUSCATINE *    MOSUNNY   86  63  45 CALM      30.03F HX  87
QUAD CITIES    SUNNY     86  62  44 E6        30.02F HX  86
$$

IAZ062-063-075>077-085>089-095>099-262100-
   SOUTHEAST IOWA

CITY           SKY/WX    TMP DP  RH WIND       PRES   REMARKS
BURLINGTON     SUNNY     84  65  52 CALM      30.03F HX  86
FAIRFIELD *    MOSUNNY   82  66  57 E8        30.04F HX  85
KEOKUK *       PTSUNNY   84  64  51 NE5       30.03S HX  86
OSKALOOSA *      N/A     82  67  60 E3        30.05S HX  85
CENTERVILLE *    N/A     82  66  57 E6        30.06F HX  85
OTTUMWA        SUNNY     83  63  50 E7        30.03F HX  84
WASHINGTON *   MOSUNNY   82  68  61 E5        30.05F HX  85
$$

ABBREVIATIONS USED IN REMARKS
   TC - TEMPERATURES IN CELSIUS
  WCI - WIND CHILL INDEX
   HX - HEAT INDEX
  VSB - VISIBILITY
$$




USA.gov is the U.S. government's official web portal to all federal, state and local government web resources and services.